Hourly Data Report for February 07, 2006

TORONTO CITY
ONTARIO

43°40'00.000" N
79°24'00.000" W
112.50 m
6158355
71508
XTO

Download Data

Hourly Data (February 2006)
Hourly Data Report for February 7, 2006
TIME
LST
Temp Definition
°C
Dew Point Definition
°C
Rel Hum Definition
%
Precip. Amount Definition
mm

Wind Dir Definition
10's deg

Wind Spd Definition
km/h
Visibility Definition
km
Stn Press Definition
kPa
Hmdx Definition


Wind Chill Definition


Weather Definition


00:00 -4.1 -7.1 80   LegendMM LegendMM   99.52     LegendNANA
01:00 -4.0 -8.2 73   LegendMM LegendMM   99.57     LegendNANA
02:00 -4.1 -8.3 73   LegendMM LegendMM   99.62     LegendNANA
03:00 -4.0 -8.3 72   LegendMM LegendMM   99.66     LegendNANA
04:00 -3.9 -8.2 72   LegendMM LegendMM   99.70     LegendNANA
05:00 -3.9 -7.9 74   LegendMM LegendMM   99.74     LegendNANA
06:00 -4.0 -7.9 74   LegendMM LegendMM   99.81     LegendNANA
07:00 -3.8 -7.7 74   LegendMM LegendMM   99.89     LegendNANA
08:00 -3.7 -7.9 73   LegendMM LegendMM   99.96     LegendNANA
09:00 -3.4 -7.9 71   LegendMM LegendMM   100.05     LegendNANA
10:00 -3.3 -8.1 69   LegendMM LegendMM   100.11     LegendNANA
11:00 -1.8 -7.7 64   LegendMM LegendMM   100.13     LegendNANA
12:00 -1.3 -8.0 60   LegendMM LegendMM   100.12     LegendNANA
13:00 -1.6 -7.9 62   LegendMM LegendMM   100.11     LegendNANA
14:00 -1.3 -7.9 61   LegendMM LegendMM   100.11     LegendNANA
15:00 -1.1 -7.6 61   LegendMM LegendMM   100.14     LegendNANA
16:00 -1.4 -7.2 65   LegendMM LegendMM   100.19     LegendNANA
17:00 -2.0 -7.5 66   LegendMM LegendMM   100.25     LegendNANA
18:00 -2.4 -7.5 68   LegendMM LegendMM   100.30     LegendNANA
19:00 -2.8 -8.0 67   LegendMM LegendMM   100.37     LegendNANA
20:00 -3.3 -8.3 68   LegendMM LegendMM   100.40     LegendNANA
21:00 -3.6 -8.2 70   LegendMM LegendMM   100.43     LegendNANA
22:00 -3.9 -7.9 74   LegendMM LegendMM   100.45     LegendNANA
23:00 -3.8 -8.0 73   LegendMM LegendMM   100.43     LegendNANA

Notes on Data Quality.

Legend

  • E = Estimated
  • M = Missing
  • NA = Not Available*
  • [empty] = Indicates an unobserved value
Date modified: